COSMOS 1275 DEB, 12666

Orbit data source: Space-Track

COSMOS 1275 DEB, 12666 is space debris in LEO originally from a launch on Thu, 04 Jun 1981 UTC launched from the Plesetsk Missile And Space Complex (PKMTR). Debris objects in space refer to the collection of defunct objects orbiting the Earth. Examples of debris include non-operational satellites, rocket bodies, and fragments generated from explosions, collisions, or faulty payload assembly.

Loading next visibility...
Identifier
12666, 1981-053W
Orbit
LEO
Country
Flag of CISCIS
Related business
Manufacturer
Unknown
Mission
Spacecraft
Bus & Motor
Unknown
Mass
Unknown
Launch date (UTC)
1981-06-04 (44 years ago)
Launch vehicle
Unknown
Launch site
Plesetsk Missile And Space Complex (PKMTR)
Object type
Payload
Rocket body
Debris
Shape & HBR
Unknown shape, 0.2 m
Radar Cross Section
Small (<0.1 m²)

Expand to show TLE details & history
Last TLE update: 5 hours ago

TLE from 5 hours ago
0 COSMOS 1275 DEB
1 12666U 81053W   25302.53889535  .00000571  00000-0  57946-3 0  9993
2 12666  82.8749  33.1131 0069610 173.8558 206.1961 13.74233726211403
Epoch: 2025-10-29T12:56Z
TLE epoch observation values (Epoch: 2025-10-29T12:56:00.558Z)
Latitude
19.54408°
Longitude
163.53032°
Altitude
1,032.929 km
Speed
7.314 km/s
True Right ascension
02h 22m 34s
True Declination
19° 26' 24"
Sunlit
Object was in full shadow at epoch
Visualization orbit readout
Latitude
Unknown
Longitude
Unknown
Altitude
Unknown
Speed
Unknown
Apparent Right ascension
Unknown
Apparent Declination
Unknown
Sunlit
N/A
Visualization observer readout
Local Sidereal Time
13:49:46
Azimuth
Unknown
Elevation
Unknown
Doppler factor
Unknown
Orbital elements
Apogee altitude
1,032.794 km
Perigee altitude
930.332 km
Semi-major axis
7,359.7 km
Eccentricity
0.00696
Inclination
82.8749°
RAAN
33.1131°
Arg. of periapsis
173.8558°
True anomaly
205.8467°
Mean anomaly
206.1961°
Eccentric anomaly
206.02113°
Mean motion
3.43758 °/min
Orbital period
104.72 mins
BSTAR
0.00057946
Loading maneuver chart data...
Computing Atmospheric mass density...
Loading historical data...
Loading historical data...
Loading historical data...
Loading historical data...
Loading historical data...
Loading historical data...
Loading historical data...

Documentation

Showing up to 5 results
|